OBJECT Q, 61908

Orbit data source: Space-Track

You're viewing an Uncataloged Satellite

Recently launched and/or uncataloged satellites may have evolving metadata. Metadata may include but not limited to: Owner, Maufacturer, Bus, Motor, and Mission.

OBJECT Q, 61908 is a Chinese satellite in SSO that was launched on Mon, 11 Nov 2024 UTC via a LIJIAN-1 launch vehicle from the Jiuquan Satellite Launch Center, China (JSC). Unknown objects in Earth's orbit typically refer to objects detected orbiting the Earth but have not yet been identified or cataloged. These objects could be anything from previously untracked satellites, spent rocket stages, debris from satellite collisions, or even natural meteoroids temporarily captured by Earth's gravity.

Loading next visibility...
Identifier
61908, 2024-205Q
Orbit
SSO
Country
Flag of CNCN / PRC
Related business
None
Manufacturer
Unknown
Mission
Operational Defense Technology
Bus & Motor
Unknown
Mass
Unknown
Launch date (UTC)
2024-11-11 (1 year ago)
Launch vehicle
LIJIAN-1
Launch site
Jiuquan Satellite Launch Center, China (JSC)
Object type
Unknown
Shape & HBR
Box + 2 Pan, 2.5 m
Radar Cross Section
4.795 m², Medium (>0.1 m² and < 1m²)

Expand to show TLE details & history
Last TLE update: 13 hours ago

TLE from 13 hours ago
0 OBJECT Q
1 61908U 24205Q   26107.25610624  .00003628  00000-0  18810-3 0  9999
2 61908  97.4156 181.0689 0010594 268.3372  91.6648 15.16751375 79091
Epoch: 2026-04-17T06:08Z
TLE epoch observation values (Epoch: 2026-04-17T06:08:47.579Z)
Latitude
0.00001°
Longitude
-116.52126°
Altitude
518.972 km
Speed
7.604 km/s
True Right ascension
12h 04m 16s
True Declination
0° 00' 00"
Sunlit
Object was in full shadow at epoch
Visualization orbit readout
Latitude
Unknown
Longitude
Unknown
Altitude
Unknown
Speed
Unknown
Apparent Right ascension
Unknown
Apparent Declination
Unknown
Sunlit
N/A
Visualization observer readout
Local Sidereal Time
02:08:30
Azimuth
Unknown
Elevation
Unknown
Doppler factor
Unknown
Orbital elements
Apogee altitude
519.937 km
Perigee altitude
505.337 km
Semi-major axis
6,890.774 km
Eccentricity
0.00106
Inclination
97.4156°
RAAN
181.0689°
Arg. of periapsis
268.3372°
True anomaly
91.78614°
Mean anomaly
91.6648°
Eccentric anomaly
91.72547°
Mean motion
3.79438 °/min
Orbital period
94.88 mins
BSTAR
0.0001881
Loading maneuver chart data...
Computing Atmospheric mass density...
Loading historical data...
Loading historical data...
Loading historical data...
Loading historical data...
Loading historical data...
Loading historical data...
Loading historical data...

Documentation

Showing up to 5 results
|